Location: West Cummington
(42.4920°N, 72.9680°W)
Time: 08:50:22
(UTC-05:00)

Daily predictions for brighter satellites

Satellite Brightness Start Highest point End
(mag) Time Altitude Azimuth Time Altitude Azimuth Time Altitude Azimuth
Genesis I 3.9 16:45:16 10° NW 16:49:08 60° WSW 16:52:58 10° SSE
SMAP 3.4 16:46:26 10° SE 16:50:48 42° ENE 16:55:11 10° N
Cosmos 1833 Rocket 3.0 16:45:40 10° NNW 16:51:03 44° ENE 16:56:24 10° SE
NOSS 3-3 (A) 4.2 16:46:06 10° SW 16:52:17 76° NW 16:59:01 10° NNE
BREEZE-M DEB (TANK) 2.7 16:50:16 10° W 16:52:22 30° NNW 16:54:28 10° NE
NOSS 3-3 (C) 4.2 16:46:11 10° SW 16:52:23 77° NW 16:59:08 10° NE
Cosmos 2366 rocket 4.1 16:47:34 10° N 16:53:56 85° E 17:00:14 10° S
Meteor 1-18 Rocket 4.3 16:50:52 10° S 16:56:33 90° ESE 17:02:24 10° N
ATLAS 2AS CENTAUR R/B 4.3 16:52:19 10° NW 16:59:50 46° WSW 17:06:52 10° S
Okean 1 3.3 16:57:12 10° S 17:01:15 81° E 17:05:20 10° N
SJ-12 4.0 16:57:31 10° SSE 17:01:32 58° ENE 17:05:37 10° N
Tiangong 1 0.9 16:58:36 10° W 17:01:39 89° SSE 17:04:35 11° E
Intercosmos 25 4.0 16:59:06 10° NNE 17:01:47 24° ENE 17:04:43 10° SE
Cosmos 1346 Rocket 2.8 16:58:16 10° S 17:02:05 57° E 17:05:54 10° NNE
Cosmos 2082 Rocket 2.2 16:56:58 10° NNW 17:02:36 63° ENE 17:08:14 10° SE
CZ-3B DEB 2.5 17:00:48 10° WSW 17:04:23 58° NNW 17:13:27 10° NE
ERBS 4.4 17:05:14 10° N 17:07:00 13° NNE 17:08:22 11° NE
Cosmos 2218 Rocket 4.5 17:00:53 10° NNW 17:07:05 67° W 17:13:10 10° S
AQUARIUS 4.2 17:03:35 10° SSE 17:08:00 63° ENE 17:12:28 10° N
Cosmos 1500 3.1 17:05:09 10° N 17:09:01 77° E 17:12:53 10° SSE
Cosmos 2056 Rocket 4.5 17:05:38 10° SSE 17:10:08 28° E 17:14:36 10° NE
Cosmos 921 Rocket 3.1 17:07:43 10° S 17:11:54 57° ESE 17:16:12 10° NNE
COSMO-SKYMED 1 3.7 17:09:34 10° NE 17:13:06 24° E 17:16:36 10° SSE
Cosmos 1743 3.1 17:10:15 10° N 17:13:56 40° ENE 17:17:34 10° SSE
Cosmos 1025 Rocket 4.0 17:11:34 10° SSE 17:15:18 28° E 17:19:04 10° NNE
ISS -1.3 17:17:08 10° NW 17:19:21 17° N 17:20:54 13° NNE
Cosmos 1821 Rocket 4.1 17:20:54 10° N 17:26:47 48° ENE 17:32:39 10° SSE
Cosmos 1371 Rocket 4.2 17:23:43 10° S 17:28:56 56° ESE 17:34:11 10° NNE
Timation 1 Rocket 4.3 17:25:31 10° SSW 17:31:28 90° ESE 17:37:29 10° NNE
Meteor 2-16 Rocket 4.4 17:26:14 10° N 17:32:18 65° E 17:38:20 10° SSE
Meteor 1-19 Rocket 4.3 17:27:01 10° S 17:32:45 65° E 17:38:34 10° NNE
Meteor 2-21 Rocket 4.4 17:26:36 10° N 17:32:49 80° E 17:38:57 10° S
Cosmos 1484 Rocket 2.8 17:33:03 10° SSE 17:36:38 48° ENE 17:40:14 10° N
YAOGAN 1 2.9 17:32:29 10° S 17:36:48 70° WSW 17:41:08 10° NNW
CORIOLIS 4.3 17:31:59 10° S 17:37:23 79° WSW 17:42:47 10° NNW
NOSS 7 (E) 4.3 17:34:58 10° SSW 17:38:25 73° SE 17:40:10 25° NE
Cosmos 2369 Rocket 3.5 17:36:27 10° SE 17:40:23 20° E 17:40:59 19° E
Cosmos 2058 Rocket 4.0 17:36:38 10° NNE 17:40:24 26° ENE 17:44:09 10° SE
Meteor 2-9 Rocket 4.2 17:35:58 10° N 17:41:13 50° ENE 17:46:22 10° SSE
SPOT 3 Rocket 4.1 17:36:22 10° S 17:41:28 61° WSW 17:46:37 10° NNW
NOSS 2-1 (D) 3.6 17:38:26 10° SW 17:42:15 65° NW 17:45:29 17° NNE
NOSS 2-1 (C) 3.6 17:39:05 10° SW 17:42:55 67° NW 17:46:09 17° NNE
BREEZE M DEB (TANK) 2.8 17:34:05 10° SW 17:42:57 76° SSE 17:44:40 28° ENE
NOSS 7 (D) 4.3 17:46:38 10° SW 17:50:06 88° SE 17:51:28 33° NE
Meteor 1-15 Rocket 4.4 17:44:52 10° N 17:50:35 50° ENE 17:56:11 10° SSE
Meteor 2-4 Rocket 3.5 17:47:31 10° S 17:52:49 68° E 17:58:09 10° NNE
Meteor 1-23 Rocket 4.2 17:48:28 10° S 17:54:02 61° E 17:59:35 10° NNE
Nadezhda 3 Rocket 4.3 17:50:01 10° SSW 17:56:11 68° W 18:02:30 10° N
Cosmos 1190 Rocket 3.9 17:52:53 10° NNW 17:58:07 67° ENE 18:03:17 10° SSE
Okean 2 3.5 17:54:40 10° S 17:58:41 50° E 18:00:15 32° NE
Cosmos 1452 Rocket 4.2 17:54:18 10° SSE 17:58:53 32° E 17:59:28 31° E
SKYMED 2 3.4 17:57:39 14° NNE 18:01:21 79° ESE 18:05:40 10° S
NOSS 2-1 (E) 4.2 17:57:55 10° SW 18:01:43 48° NW 18:04:23 21° NNE
Cosmos 1340 3.3 18:00:02 10° SSE 18:02:53 36° ESE 18:02:53 36° ESE
METEOR-M 4.3 18:01:05 10° SE 18:06:08 46° ENE 18:11:14 10° N
CZ-4 R/B 4.2 18:05:30 10° SW 18:08:39 21° W 18:11:47 10° NW
BREEZE-M DEB (TANK) 3.8 18:04:36 10° WNW 18:09:59 34° N 18:11:01 30° NNE
SL-8 R/B 4.4 18:08:05 10° WNW 18:12:36 40° N 18:13:33 36° NNE
GEOS 3 Rocket 4.0 18:12:10 38° ENE 18:12:38 39° NE 18:17:23 10° NNW
IDEFIX/ARIANE 42P 4.5 18:10:39 10° SSW 18:15:12 31° W 18:19:46 10° NW
Cosmos 1892 Rocket 3.4 18:11:26 10° S 18:15:46 73° E 18:17:17 40° NNE
USA 234 3.4 18:11:47 25° NE 18:15:48 70° NW 18:22:17 10° WSW
Cosmos 1727 Rocket 4.0 18:11:48 10° SSE 18:17:47 52° E 18:21:20 24° NNE
Cosmos 1726 Rocket 3.5 18:15:56 10° N 18:20:25 87° W 18:24:53 10° S
Cosmos 1666 3.5 18:19:21 10° NNW 18:23:08 51° W 18:26:53 10° S
DMSP B5D1-3 4.5 18:20:10 18° NNE 18:24:08 86° WNW 18:29:15 10° SSW
Meteor 2-8 Rocket 4.4 18:20:58 10° S 18:27:03 83° W 18:33:14 10° N
Cosmos 1934 Rocket 4.4 18:29:26 10° NNW 18:35:35 62° W 18:41:47 10° S
NOSS 3-4 (A) 4.4 18:29:25 10° NW 18:36:19 58° WSW 18:43:37 10° SSE
NOSS 3-4 (C) 4.4 18:29:31 10° NW 18:36:26 59° WSW 18:43:44 10° SSE
Tiangong 1 3.2 18:34:48 10° W 18:36:16 25° W 18:36:16 25° W
BREEZE M DEB (TANK) 3.7 18:40:20 10° WNW 18:44:33 86° SSW 18:50:56 28° SE
Cosmos 407 Rocket 4.2 18:42:14 10° NNW 18:47:14 53° WSW 18:52:15 10° S
COSMO-SKYMED 1 4.2 18:46:16 15° NNW 18:49:16 31° WNW 18:53:06 10° SW
Meteor 1-28 Rocket 4.5 18:51:38 40° W 18:51:38 40° W 18:54:51 10° SW
Cosmos 1339 Rocket 4.3 18:45:46 10° S 18:51:50 85° E 18:53:26 52° NNE
Cosmos 676 Rocket 4.5 18:54:53 10° NNW 18:59:59 58° WSW 19:02:36 28° S
Cosmos 1954 Rocket 4.3 18:58:31 10° NNW 19:03:04 62° WNW 19:03:04 62° WNW
Cosmos 2369 Rocket 2.9 19:18:16 10° SW 19:22:50 52° WSW 19:22:50 52° WSW
CZ-3B DEB 4.3 19:34:03 10° WNW 19:40:49 41° NNE 19:41:22 41° NNE
FALCON 9 R/B 4.2 20:03:39 10° W 20:13:37 33° SW 20:13:37 33° SW
